When you browse on this site, cookies collect data to enhance your experience and personalize the content and advertising you see.
Visit our Privacy Policy to learn more. By continuing to use the site, you agree to this use of cookies and data.
  • In Belgium
  • List of Countries
  • For 7 days
  • Water Temperature
  • Satellite Maps
  • Weather Map
  • Weather Widgets
  • user-avatar
    Login

    Hourly Weather Baden-Baden

    Today, 21 July, Sunday

    Time Temperature Precipitation Wind Pressure Humidity
    00:00 +19°C° 0.8 mm 2 mps 731 mmHg 90%
    01:00 +20°C° 0 mm 1 mps 731 mmHg 92%
    02:00 +20°C° 0.1 mm 1 mps 731 mmHg 93%
    03:00 +19°C° 0.1 mm 1 mps 731 mmHg 94%
    04:00 +18°C° 0.1 mm 2 mps 732 mmHg 94%
    05:00 +19°C° 0.6 mm 2 mps 732 mmHg 93%
    06:00 +19°C° 0.6 mm 2 mps 732 mmHg 91%
    07:00 +20°C° 0.6 mm 2 mps 733 mmHg 90%
    08:00 +21°C° 0.4 mm 2 mps 733 mmHg 85%
    09:00 +23°C° 0.4 mm 2 mps 734 mmHg 80%
    10:00 +24°C° 0.4 mm 2 mps 734 mmHg 74%
    11:00 +25°C° 0.1 mm 2 mps 735 mmHg 68%
    12:00 +26°C° 0.1 mm 2 mps 735 mmHg 61%
    13:00 +27°C° 0.1 mm 2 mps 735 mmHg 54%
    14:00 +27°C° 0 mm 2 mps 735 mmHg 54%
    15:00 +27°C° 0 mm 2 mps 735 mmHg 53%
    16:00 +27°C° 0 mm 2 mps 735 mmHg 52%
    17:00 +26°C° 0 mm 2 mps 735 mmHg 58%
    18:00 +25°C° 0 mm 1 mps 735 mmHg 63%
    19:00 +24°C° 0 mm 1 mps 735 mmHg 68%
    20:00 +23°C° 0 mm 1 mps 735 mmHg 70%
    21:00 +22°C° 0 mm 1 mps 736 mmHg 72%
    22:00 +20°C° 0 mm 1 mps 736 mmHg 74%
    23:00 +20°C° 0 mm 1 mps 736 mmHg 74%

    Tomorrow, 22 July, Monday

    Time Temperature Precipitation Wind Pressure Humidity
    00:00 +19°C° 0 mm 1 mps 736 mmHg 75%
    01:00 +19°C° 0 mm 1 mps 736 mmHg 76%
    02:00 +17°C° 0 mm 0 mps 736 mmHg 77%
    03:00 +16°C° 0 mm 0 mps 736 mmHg 78%
    04:00 +16°C° 0 mm 0 mps 736 mmHg 80%
    05:00 +17°C° 0 mm 0 mps 736 mmHg 78%
    06:00 +18°C° 0 mm 0 mps 736 mmHg 76%
    07:00 +19°C° 0 mm 0 mps 736 mmHg 74%
    08:00 +21°C° 0 mm 0 mps 737 mmHg 68%
    09:00 +22°C° 0 mm 0 mps 737 mmHg 63%
    10:00 +26°C° 0 mm 1 mps 737 mmHg 57%
    11:00 +27°C° 0 mm 1 mps 737 mmHg 55%
    12:00 +28°C° 0 mm 1 mps 737 mmHg 53%
    13:00 +28°C° 0 mm 1 mps 737 mmHg 50%
    14:00 +28°C° 0 mm 1 mps 736 mmHg 50%
    15:00 +29°C° 0 mm 1 mps 736 mmHg 49%
    16:00 +29°C° 0 mm 1 mps 736 mmHg 49%
    17:00 +28°C° 0 mm 1 mps 736 mmHg 54%
    18:00 +27°C° 0 mm 1 mps 736 mmHg 60%
    19:00 +26°C° 0 mm 1 mps 735 mmHg 65%
    20:00 +24°C° 0 mm 1 mps 736 mmHg 66%
    21:00 +23°C° 0 mm 1 mps 736 mmHg 67%
    22:00 +21°C° 0 mm 1 mps 736 mmHg 68%
    23:00 +21°C° 0 mm 1 mps 736 mmHg 72%

    Day after tomorrow, 23 July, Tuesday

    Time Temperature Precipitation Wind Pressure Humidity
    00:00 +21°C° 0 mm 1 mps 735 mmHg 76%
    01:00 +20°C° 0 mm 1 mps 735 mmHg 80%
    02:00 +20°C° 0 mm 1 mps 735 mmHg 82%
    03:00 +20°C° 0 mm 1 mps 735 mmHg 83%
    04:00 +19°C° 0 mm 1 mps 735 mmHg 85%
    05:00 +20°C° 0 mm 1 mps 735 mmHg 83%
    06:00 +21°C° 0 mm 1 mps 734 mmHg 80%
    07:00 +22°C° 0 mm 1 mps 734 mmHg 77%
    08:00 +24°C° 0 mm 2 mps 734 mmHg 69%
    09:00 +26°C° 0 mm 2 mps 735 mmHg 62%
    10:00 +28°C° 0 mm 2 mps 735 mmHg 54%
    11:00 +29°C° 0 mm 2 mps 734 mmHg 51%
    12:00 +30°C° 0 mm 2 mps 734 mmHg 47%
    13:00 +31°C° 0 mm 2 mps 734 mmHg 43%
    14:00 +32°C° 0 mm 2 mps 733 mmHg 43%
    15:00 +32°C° 0 mm 2 mps 733 mmHg 42%
    16:00 +32°C° 0 mm 2 mps 733 mmHg 42%
    17:00 +31°C° 0 mm 2 mps 733 mmHg 49%
    18:00 +29°C° 0 mm 2 mps 732 mmHg 57%
    19:00 +28°C° 0 mm 2 mps 732 mmHg 64%
    20:00 +26°C° 0 mm 2 mps 732 mmHg 70%
    21:00 +25°C° 0 mm 2 mps 732 mmHg 76%
    22:00 +23°C° 0 mm 2 mps 732 mmHg 82%
    23:00 +23°C° 0 mm 2 mps 732 mmHg 82%

    24 July, Wednesday

    Time Temperature Precipitation Wind Pressure Humidity
    00:00 +21°C° 0 mm 2 mps 732 mmHg 83%
    01:00 +22°C° 0 mm 1 mps 732 mmHg 83%
    02:00 +21°C° 0 mm 1 mps 731 mmHg 83%
    03:00 +21°C° 0 mm 1 mps 731 mmHg 83%
    04:00 +20°C° 0 mm 1 mps 731 mmHg 83%
    05:00 +21°C° 0 mm 1 mps 731 mmHg 80%
    06:00 +23°C° 0 mm 1 mps 731 mmHg 77%
    07:00 +24°C° 0 mm 1 mps 731 mmHg 74%
    08:00 +26°C° 0 mm 1 mps 732 mmHg 67%
    09:00 +28°C° 0 mm 1 mps 732 mmHg 60%
    10:00 +30°C° 0 mm 1 mps 732 mmHg 53%
    11:00 +31°C° 0 mm 1 mps 732 mmHg 50%
    12:00 +32°C° 0 mm 1 mps 731 mmHg 47%
    13:00 +34°C° 0 mm 1 mps 731 mmHg 44%
    14:00 +34°C° 0 mm 1 mps 731 mmHg 44%
    15:00 +34°C° 0 mm 1 mps 731 mmHg 43%
    16:00 +34°C° 0 mm 1 mps 731 mmHg 42%
    17:00 +33°C° 0 mm 1 mps 730 mmHg 49%
    18:00 +31°C° 0 mm 1 mps 730 mmHg 55%
    19:00 +30°C° 0 mm 1 mps 730 mmHg 61%
    20:00 +29°C° 0 mm 1 mps 730 mmHg 64%
    21:00 +27°C° 0 mm 1 mps 730 mmHg 66%
    22:00 +26°C° 0 mm 1 mps 730 mmHg 68%
    23:00 +25°C° 0 mm 1 mps 730 mmHg 71%

    25 July, Thursday

    Time Temperature Precipitation Wind Pressure Humidity
    00:00 +25°C° 0 mm 1 mps 730 mmHg 73%
    01:00 +24°C° 0 mm 1 mps 730 mmHg 75%
    02:00 +24°C° 0 mm 1 mps 730 mmHg 77%
    03:00 +24°C° 0 mm 1 mps 730 mmHg 79%
    04:00 +23°C° 0 mm 1 mps 729 mmHg 81%
    05:00 +24°C° 0 mm 1 mps 729 mmHg 78%
    06:00 +25°C° 0 mm 1 mps 729 mmHg 75%
    07:00 +26°C° 0 mm 1 mps 730 mmHg 73%
    08:00 +28°C° 0 mm 1 mps 730 mmHg 66%
    09:00 +30°C° 0 mm 1 mps 730 mmHg 59%
    10:00 +32°C° 0 mm 1 mps 730 mmHg 53%
    11:00 +33°C° 0 mm 1 mps 729 mmHg 49%
    12:00 +34°C° 0 mm 1 mps 729 mmHg 45%
    13:00 +35°C° 0 mm 1 mps 729 mmHg 42%
    14:00 +35°C° 0 mm 1 mps 729 mmHg 40%
    15:00 +35°C° 0 mm 1 mps 728 mmHg 39%
    16:00 +36°C° 0 mm 1 mps 728 mmHg 38%
    17:00 +34°C° 0 mm 1 mps 728 mmHg 45%
    18:00 +33°C° 0 mm 1 mps 728 mmHg 51%
    19:00 +30°C° 0 mm 0 mps 727 mmHg 58%
    20:00 +30°C° 0 mm 1 mps 727 mmHg 60%
    21:00 +29°C° 0 mm 1 mps 727 mmHg 63%
    22:00 +27°C° 0 mm 2 mps 727 mmHg 65%
    23:00 +27°C° 0 mm 2 mps 727 mmHg 65%

    26 July, Friday

    Time Temperature Precipitation Wind Pressure Humidity
    00:00 +27°C° 0 mm 2 mps 727 mmHg 64%
    01:00 +27°C° 0 mm 2 mps 728 mmHg 64%
    02:00 +26°C° 0.1 mm 2 mps 728 mmHg 65%
    03:00 +26°C° 0.1 mm 2 mps 728 mmHg 65%
    04:00 +26°C° 0.1 mm 3 mps 728 mmHg 66%
    05:00 +25°C° 0.2 mm 3 mps 728 mmHg 70%
    06:00 +25°C° 0.2 mm 3 mps 728 mmHg 74%
    07:00 +24°C° 0.2 mm 3 mps 729 mmHg 77%
    08:00 +25°C° 0.1 mm 3 mps 729 mmHg 72%
    09:00 +26°C° 0.1 mm 3 mps 729 mmHg 67%
    10:00 +27°C° 0.1 mm 3 mps 729 mmHg 61%
    11:00 +28°C° 0 mm 3 mps 729 mmHg 58%
    12:00 +29°C° 0 mm 2 mps 729 mmHg 54%
    13:00 +30°C° 0 mm 2 mps 729 mmHg 51%
    14:00 +29°C° 0.3 mm 3 mps 729 mmHg 57%
    15:00 +28°C° 0.3 mm 3 mps 729 mmHg 63%
    16:00 +27°C° 0.3 mm 4 mps 729 mmHg 69%
    17:00 +23°C° 3 mm 4 mps 729 mmHg 78%
    18:00 +21°C° 3 mm 4 mps 729 mmHg 87%
    19:00 +18°C° 3 mm 4 mps 729 mmHg 96%
    20:00 +17°C° 4.4 mm 3 mps 730 mmHg 96%
    21:00 +17°C° 4.4 mm 2 mps 730 mmHg 96%
    22:00 +16°C° 4.4 mm 1 mps 731 mmHg 96%
    23:00 +15°C° 0.1 mm 2 mps 731 mmHg 96%
    Show more